Tracking 20942 objects as of 9-Jul-2020
HD Live streaming from Space Station
objects crossing your sky now

FENGYUN 1C DEB

Track FENGYUN 1C DEB now!
10-day predictions


NORAD ID: 35222
Int'l Code: 1999-025DQE
Perigee: 484.4 km
Apogee: 683.6 km
Inclination: 98.9 °
Period: 96.2 minutes
Semi major axis: 6955 km
RCS: 0.0015 m2 (small)
Launch date: May 10, 1999
Source: People's Republic of China (PRC)
Launch site: Taiyaun Space Center, China (TSC)

Note: This is SATELLITE DEBRIS
aabbcc
Your satellite tracking list
Your tracking list is empty




NASA's NSSDC Master Catalog

Two Line Element Set (TLE):
1 35222U 99025DQE 20191.12252624 +.00000642 +00000-0 +52138-4 0  9991
2 35222 098.9461 074.6333 0143209 012.5135 347.9578 14.96773560672191
Source of the keplerian elements: AFSPC